W5HRH Weather Reports


time (UTC)temp
F
wind
direction
speed
knots
gust
knots
rain 1hr
in
rain 24hr
in
rain mn
in
humidity
%
barometer
mb
20260901112550 81 333 0.0 2.6 0.00 0.00 0.00 88 1016.7
20260901112050 81 5 0.9 2.6 0.00 0.00 0.00 88 1016.7
20260901111551 81 11 0.0 1.7 0.00 0.00 0.00 88 1016.7
20260901111052 81 10 0.0 2.6 0.00 0.00 0.00 88 1016.7
20260901110550 81 10 0.0 2.6 0.00 0.00 0.00 88 1016.7
20260901110050 81 26 0.0 2.6 0.00 0.00 0.00 88 1016.6
20260901105549 80 65 0.0 1.7 0.00 0.00 0.00 88 1016.6
20260901105049 80 65 0.0 2.6 0.00 0.00 0.00 88 1016.6
20260901104558 80 65 0.0 2.6 0.00 0.00 0.00 88 1016.5
20260901104049 80 142 0.0 0.9 0.00 0.00 0.00 88 1016.4
20260901103548 80 142 0.0 0.9 0.00 0.00 0.00 88 1016.4
20260901103048 80 142 0.0 0.9 0.00 0.00 0.00 88 1016.5
20260901102548 80 142 0.0 0.9 0.00 0.00 0.00 88 1016.5
20260901102048 80 142 0.0 0.9 0.00 0.00 0.00 88 1016.4
20260901101548 80 142 0.0 0.0 0.00 0.00 0.00 88 1016.5
20260901101047 80 142 0.0 0.0 0.00 0.00 0.00 88 1016.5
20260901100551 80 142 0.0 0.0 0.00 0.00 0.00 88 1016.6
20260901095549 80 142 0.0 0.0 0.00 0.00 0.00 88 1016.5
20260901095045 80 142 0.0 0.0 0.00 0.00 0.00 88 1016.6
20260901094546 80 142 0.0 0.0 0.00 0.00 0.00 88 1016.6
20260901094045 80 142 0.0 0.0 0.00 0.00 0.00 88 1016.6
20260901093544 80 142 0.0 0.0 0.00 0.00 0.00 88 1016.7
20260901093054 80 142 0.0 0.0 0.00 0.00 0.00 87 1016.6
20260901092544 80 142 0.0 0.0 0.00 0.00 0.00 88 1016.5
20260901092043 80 142 0.0 0.0 0.00 0.00 0.00 87 1016.7
20260901091542 80 142 0.0 0.0 0.00 0.00 0.00 87 1016.7
20260901091042 80 142 0.0 0.0 0.00 0.00 0.00 87 1016.7
20260901090541 80 142 0.0 0.0 0.00 0.00 0.00 87 1016.7
20260901090042 80 142 0.0 0.0 0.00 0.00 0.00 86 1016.8
20260901085541 81 142 0.0 1.7 0.00 0.00 0.00 87 1016.7
20260901085041 81 142 0.0 1.7 0.00 0.00 0.00 87 1016.7
20260901084540 81 142 0.0 0.0 0.00 0.00 0.00 86 1016.7
20260901084040 81 142 0.0 0.0 0.00 0.00 0.00 86 1016.7
20260901083540 81 142 0.0 0.0 0.00 0.00 0.00 86 1016.6
20260901083040 81 142 0.0 0.0 0.00 0.00 0.00 86 1016.6
20260901082540 81 142 0.0 0.0 0.00 0.00 0.00 86 1016.6
20260901082043 81 142 0.0 0.9 0.00 0.00 0.00 86 1016.7
20260901081538 81 142 0.0 0.9 0.00 0.00 0.00 86 1016.7
20260901081039 81 142 0.0 0.0 0.00 0.00 0.00 86 1016.8
20260901080537 81 142 0.0 0.0 0.00 0.00 0.00 86 1016.8
20260901080037 81 142 0.0 0.0 0.00 0.00 0.00 86 1016.9
20260901075537 81 142 0.0 0.0 0.00 0.00 0.00 86 1016.9
20260901075037 81 142 0.0 0.0 0.00 0.00 0.00 86 1017.0
20260901074536 81 142 0.0 0.0 0.00 0.00 0.00 86 1017.0
20260901074036 81 142 0.0 0.0 0.00 0.00 0.00 86 1016.9
20260901073536 81 142 0.0 0.0 0.00 0.00 0.00 85 1016.9
20260901073040 81 142 0.0 0.0 0.00 0.00 0.00 85 1016.9
20260901072537 81 142 0.0 0.0 0.00 0.00 0.00 85 1016.9
20260901072036 81 142 0.0 0.0 0.00 0.00 0.00 85 1016.8
20260901071534 81 142 0.0 0.0 0.00 0.00 0.00 85 1016.9
20260901071033 81 142 0.0 0.0 0.00 0.00 0.00 85 1017.0
20260901070533 82 142 0.0 0.0 0.00 0.00 0.00 85 1017.0
20260901070034 82 142 0.0 0.0 0.00 0.00 0.00 85 1016.9
20260901065533 82 142 0.0 0.0 0.00 0.00 0.00 84 1017.1
20260901065032 82 142 0.0 0.0 0.00 0.00 0.00 84 1017.1
20260901064536 82 142 0.0 0.0 0.00 0.00 0.00 84 1017.0
20260901064035 82 142 0.0 0.0 0.00 0.00 0.00 84 1017.0
20260901063531 82 142 0.0 0.0 0.00 0.00 0.00 84 1017.0
20260901063036 82 142 0.0 0.0 0.00 0.00 0.00 84 1017.1
20260901062532 82 142 0.0 0.0 0.00 0.00 0.00 84 1017.1
20260901062031 82 142 0.0 0.0 0.00 0.00 0.00 84 1017.1
20260901061529 82 142 0.0 0.0 0.00 0.00 0.00 83 1017.1
20260901061029 82 142 0.0 0.0 0.00 0.00 0.00 83 1017.1
20260901060530 82 142 0.0 0.0 0.00 0.00 0.00 83 1017.1
20260901060029 83 142 0.0 0.0 0.00 0.00 0.00 83 1017.2
20260901055528 83 142 0.0 0.0 0.00 0.00 0.00 83 1017.2
20260901055027 83 142 0.0 0.0 0.00 0.00 0.00 82 1017.2
20260901054528 83 142 0.0 0.0 0.00 0.00 0.00 81 1017.2
20260901054026 83 142 0.0 0.0 0.00 0.00 0.00 81 1017.1
20260901053524 83 142 0.0 0.0 0.00 0.00 0.00 81 1017.0
20260901053023 83 142 0.0 0.0 0.00 0.00 0.00 81 1017.0
20260901052527 83 142 0.0 0.0 0.00 0.00 0.00 81 1017.1
20260901052023 83 142 0.0 0.0 0.00 0.00 0.00 81 1017.0
20260901051522 84 142 0.0 0.0 0.00 0.00 0.00 81 1017.0
20260901051024 84 142 0.0 0.0 0.00 0.00 0.00 80 1017.0
20260901050521 84 142 0.0 0.0 0.00 0.00 0.00 81 1016.9
20260901050022 84 142 0.0 0.0 0.00 0.00 0.00 80 1016.9
20260901045522 84 142 0.0 0.0 0.00 0.00 0.00 80 1016.9
20260901045019 84 142 0.0 0.0 0.00 0.00 0.00 80 1016.7
20260901044519 84 142 0.0 0.0 0.00 0.00 0.00 80 1016.8
20260901044019 84 142 0.0 0.0 0.00 0.00 0.00 80 1016.8
20260901043518 84 142 0.0 0.0 0.00 0.00 0.00 80 1016.7
20260901043020 84 144 0.0 0.0 0.00 0.00 0.00 79 1016.8
20260901042520 84 138 0.0 0.9 0.00 0.00 0.00 79 1016.8
20260901042017 84 138 0.0 0.9 0.00 0.00 0.00 79 1016.8
20260901041516 85 136 0.0 0.0 0.00 0.00 0.00 79 1016.9
20260901041017 85 136 0.0 0.0 0.00 0.00 0.00 78 1016.9
20260901040517 85 136 0.0 0.9 0.00 0.00 0.00 78 1016.8
20260901040018 85 136 0.0 0.9 0.00 0.00 0.00 77 1016.8
20260901035517 85 136 0.0 0.9 0.00 0.00 0.00 77 1016.8
20260901035016 85 136 0.0 2.6 0.00 0.00 0.00 76 1016.9
20260901034516 85 136 0.0 2.6 0.00 0.00 0.00 76 1016.8
20260901034016 85 157 0.0 2.6 0.00 0.00 0.00 76 1016.8
20260901033516 85 153 0.0 2.6 0.00 0.00 0.00 76 1016.7
20260901033016 85 154 0.0 2.6 0.00 0.00 0.00 76 1016.7
20260901032518 85 170 0.0 1.7 0.00 0.00 0.00 76 1016.7
20260901032016 85 173 0.0 0.0 0.00 0.00 0.00 75 1016.5
20260901031514 85 175 0.0 0.0 0.00 0.00 0.00 75 1016.3
20260901031015 85 174 0.0 0.0 0.00 0.00 0.00 75 1016.4
20260901030515 85 174 0.0 0.0 0.00 0.00 0.00 75 1016.3
20260901030015 85 174 0.0 0.0 0.00 0.00 0.00 74 1016.3
20260901025518 86 174 0.0 0.0 0.00 0.00 0.00 75 1016.1
20260901025015 86 174 0.0 0.0 0.00 0.00 0.00 74 1016.0
20260901024526 86 174 0.0 0.0 0.00 0.00 0.00 74 1015.9
20260901024017 86 175 0.0 0.0 0.00 0.00 0.00 74 1015.9
20260901023518 86 174 0.0 0.9 0.00 0.00 0.00 74 1015.9
20260901023014 86 174 0.0 0.9 0.00 0.00 0.00 73 1015.9
20260901022515 86 174 0.0 0.9 0.00 0.00 0.00 73 1015.7
20260901022015 86 174 0.0 0.9 0.00 0.00 0.00 73 1015.7
20260901021516 86 175 0.0 1.7 0.00 0.00 0.00 73 1015.6
20260901021014 86 175 0.0 4.3 0.00 0.00 0.00 73 1015.5
20260901020513 87 175 0.0 4.3 0.00 0.00 0.00 72 1015.5
20260901020012 87 153 0.0 1.7 0.00 0.00 0.00 72 1015.4
20260901015513 87 153 0.0 1.7 0.00 0.00 0.00 72 1015.3
20260901015012 87 152 0.0 2.6 0.00 0.00 0.00 72 1015.3
20260901014512 87 150 0.0 4.3 0.00 0.00 0.00 71 1015.4
20260901014012 87 154 0.0 4.3 0.00 0.00 0.00 71 1015.4
20260901013513 87 143 0.9 2.6 0.00 0.00 0.00 71 1015.3
20260901013012 87 171 0.0 2.6 0.00 0.00 0.00 71 1015.2
20260901012516 88 172 0.0 3.5 0.00 0.00 0.00 70 1015.1
20260901012013 88 172 1.7 4.3 0.00 0.00 0.00 70 1015.2
20260901011512 88 142 2.6 4.3 0.00 0.00 0.00 70 1015.1
20260901011011 88 138 0.9 3.5 0.00 0.00 0.00 69 1015.2
20260901010511 88 121 0.9 3.5 0.00 0.00 0.00 69 1015.2
20260901010013 89 137 0.9 4.3 0.00 0.00 0.00 69 1015.1
20260901005510 89 166 1.7 6.1 0.00 0.00 0.00 68 1015.2
20260901005011 89 154 1.7 6.1 0.00 0.00 0.00 68 1015.1
20260901004528 89 151 1.7 6.1 0.00 0.00 0.00 68 1015.2
20260901004009 89 144 0.9 3.5 0.00 0.00 0.00 68 1015.3
20260901003511 89 132 0.9 3.5 0.00 0.00 0.00 68 1015.3
20260901003009 89 138 0.9 3.5 0.00 0.00 0.00 68 1015.3
20260901002509 89 165 0.9 5.2 0.00 0.00 0.00 68 1015.3
20260901002008 89 175 1.7 5.2 0.00 0.00 0.00 67 1015.2
20260901001519 90 79 0.9 5.2 0.00 0.00 0.00 67 1015.3
20260901001009 90 163 0.9 6.1 0.00 0.00 0.00 67 1015.3
20260901000511 90 154 1.7 6.1 0.00 0.00 0.00 68 1015.3
20260901000013 90 159 1.7 5.2 0.00 0.00 0.00 68 1015.3
20260831235506 90 180 0.9 3.5 0.00 0.00 0.00 68 1015.3
20260831235008 90 173 0.9 3.5 0.00 0.00 0.00 67 1015.4
20260831234508 90 153 1.7 6.1 0.00 0.00 0.00 67 1015.3
20260831234007 90 128 1.7 5.2 0.00 0.00 0.00 67 1015.4
20260831233507 90 175 1.7 6.1 0.00 0.00 0.00 67 1015.5
20260831233006 90 126 2.6 6.1 0.00 0.00 0.00 66 1015.6
20260831232506 90 122 1.7 7.0 0.00 0.00 0.00 66 1015.3
20260831232006 90 133 1.7 5.2 0.00 0.00 0.00 66 1015.3
20260831231506 90 82 0.9 4.3 0.00 0.00 0.00 65 1015.4
20260831231006 91 157 2.6 5.2 0.00 0.00 0.00 65 1015.4
20260831230506 90 136 0.0 4.3 0.00 0.00 0.00 65 1015.4
20260831230005 90 146 0.9 6.1 0.00 0.00 0.00 65 1015.3
20260831225504 90 171 0.9 6.1 0.00 0.00 0.00 66 1015.4
20260831225004 90 157 1.7 6.1 0.00 0.00 0.00 66 1015.5
20260831224505 90 164 1.7 6.1 0.00 0.00 0.00 65 1015.5
20260831224005 90 163 1.7 6.1 0.00 0.00 0.00 66 1015.5
20260831223505 90 98 1.7 7.0 0.00 0.00 0.00 65 1015.5
20260831223005 90 160 1.7 7.0 0.00 0.00 0.00 65 1015.5
20260831222506 90 178 2.6 6.1 0.00 0.00 0.00 65 1015.4
20260831222003 90 145 1.7 5.2 0.00 0.00 0.00 65 1015.4
20260831221503 90 159 0.9 6.1 0.00 0.00 0.00 65 1015.5
20260831221003 90 157 3.5 7.0 0.00 0.00 0.00 64 1015.4
20260831220502 90 167 3.5 7.0 0.00 0.00 0.00 64 1015.5
20260831220002 90 172 1.7 3.5 0.00 0.00 0.00 63 1015.5
20260831215502 90 171 2.6 5.2 0.00 0.00 0.00 62 1015.5
20260831215000 90 219 2.6 5.2 0.00 0.00 0.00 61 1015.7
20260831214500 90 165 0.9 4.3 0.00 0.00 0.00 61 1015.6
20260831214102 90 164 0.9 4.3 0.00 0.00 0.00 61 1015.7
20260831213600 90 142 1.7 6.1 0.00 0.00 0.00 60 1015.8
20260831213500 89 142 1.7 6.1 0.00 0.00 0.00 60 1015.7
20260831213059 89 125 1.7 6.1 0.00 0.00 0.00 60 1015.9
20260831212559 89 161 1.7 4.3 0.00 0.00 0.00 61 1015.8
20260831212059 89 127 0.9 4.3 0.00 0.00 0.00 61 1015.8
20260831211559 89 165 1.7 4.3 0.00 0.00 0.00 61 1015.9
20260831211057 89 157 1.7 4.3 0.00 0.00 0.00 62 1015.8
20260831210557 89 163 1.7 3.5 0.00 0.00 0.00 62 1016.0
20260831210058 89 171 1.7 6.1 0.00 0.00 0.00 62 1016.0
20260831205556 89 156 1.7 6.1 0.00 0.00 0.00 62 1016.1
20260831205056 89 121 2.6 7.0 0.00 0.00 0.00 61 1016.2
20260831204602 89 158 1.7 7.8 0.00 0.00 0.00 62 1016.3
20260831204055 89 157 2.6 7.8 0.00 0.00 0.00 61 1016.3
20260831203554 90 160 1.7 7.8 0.00 0.00 0.00 62 1016.3
20260831203053 90 132 2.6 6.1 0.00 0.00 0.00 63 1016.3
20260831202552 90 176 2.6 5.2 0.00 0.00 0.00 63 1016.4
20260831202052 90 123 1.7 7.0 0.00 0.00 0.00 65 1016.5
20260831201552 91 162 1.7 6.1 0.00 0.00 0.00 66 1016.6
20260831201050 91 130 2.6 6.1 0.00 0.00 0.00 66 1016.6
20260831200550 91 138 1.7 8.7 0.00 0.00 0.00 67 1016.6
20260831200050 90 164 3.5 9.6 0.00 0.00 0.00 68 1016.7
20260831195549 90 141 2.6 9.6 0.00 0.00 0.00 68 1016.7
20260831195047 90 150 5.2 9.6 0.00 0.00 0.00 68 1016.8
20260831194548 90 190 3.5 9.6 0.00 0.00 0.00 68 1016.6
20260831194046 91 163 2.6 9.6 0.00 0.00 0.00 67 1016.8
20260831193549 92 115 4.3 13.0 0.00 0.00 0.00 64 1016.8
20260831193045 93 155 2.6 7.0 0.00 0.00 0.00 58 1016.8
20260831192545 93 101 0.0 0.0 0.00 0.00 0.00 59 1016.9
20260831192043 94 89 0.0 0.0 0.00 0.00 0.00 59 1016.9
20260831191544 94 155 0.0 0.0 0.00 0.00 0.00 60 1016.9
20260831191045 94 169 0.0 0.0 0.00 0.00 0.00 59 1016.9
20260831190543 94 94 0.0 0.0 0.00 0.00 0.00 59 1017.1
20260831190101 94 88 0.0 0.0 0.00 0.00 0.00 59 1017.2
20260831185541 94 69 0.0 0.0 0.00 0.00 0.00 59 1016.9
20260831185045 94 105 0.0 0.0 0.00 0.00 0.00 60 1017.1
20260831184543 94 153 0.0 0.0 0.00 0.00 0.00 60 1017.3
20260831184040 93 32 0.0 0.0 0.00 0.00 0.00 61 1017.4
20260831183540 93 30 0.0 0.0 0.00 0.00 0.00 61 1017.5
20260831183051 93 31 0.0 0.0 0.00 0.00 0.00 61 1017.4
20260831182539 93 119 0.0 0.0 0.00 0.00 0.00 61 1017.4
20260831182038 93 102 0.0 0.0 0.00 0.00 0.00 62 1017.5
20260831181538 92 69 0.0 0.0 0.00 0.00 0.00 62 1017.5
20260831181039 92 89 0.0 0.0 0.00 0.00 0.00 62 1017.6
20260831180538 92 142 0.0 0.0 0.00 0.00 0.00 62 1017.7
20260831180037 93 128 0.0 0.0 0.00 0.00 0.00 62 1017.7
20260831175537 93 98 0.0 0.0 0.00 0.00 0.00 63 1017.8
20260831175037 92 108 0.0 0.0 0.00 0.00 0.00 63 1017.8
20260831174537 92 186 0.0 0.0 0.00 0.00 0.00 63 1017.9
20260831174038 92 146 0.0 0.0 0.00 0.00 0.00 63 1018.0
20260831173540 92 147 0.0 0.0 0.00 0.00 0.00 63 1018.1
20260831173039 93 126 0.0 0.0 0.00 0.00 0.00 64 1018.1
20260831172534 92 154 0.0 0.0 0.00 0.00 0.00 63 1018.2
20260831172033 93 155 0.0 0.0 0.00 0.00 0.00 63 1018.2
20260831171534 92 129 0.0 0.0 0.00 0.00 0.00 64 1018.1
20260831171030 92 47 0.0 0.0 0.00 0.00 0.00 64 1018.1
20260831170530 92 11 0.0 0.0 0.00 0.00 0.00 65 1018.3
20260831170029 92 55 0.0 0.0 0.00 0.00 0.00 64 1018.2
20260831165527 91 87 0.0 0.0 0.00 0.00 0.00 65 1018.4
20260831165026 91 59 0.0 0.0 0.00 0.00 0.00 66 1018.3
20260831164529 90 144 0.0 0.0 0.00 0.00 0.00 67 1018.3
20260831164026 90 347 0.0 0.0 0.00 0.00 0.00 68 1018.3
20260831163522 91 15 0.0 0.0 0.00 0.00 0.00 67 1018.4
20260831163037 91 355 0.0 0.0 0.00 0.00 0.00 67 1018.5
20260831162520 91 117 0.0 0.0 0.00 0.00 0.00 67 1018.2
20260831162018 90 119 0.0 0.0 0.00 0.00 0.00 67 1018.4
20260831161516 90 105 0.0 0.0 0.00 0.00 0.00 67 1018.5
20260831161014 90 73 0.0 0.0 0.00 0.00 0.00 68 1018.6
20260831160514 90 190 0.0 0.0 0.00 0.00 0.00 67 1018.6
20260831160021 90 125 0.0 0.0 0.00 0.00 0.00 68 1018.6
20260831155512 90 120 0.0 0.0 0.00 0.00 0.00 68 1018.6
20260831155011 89 147 0.0 0.0 0.00 0.00 0.00 70 1018.6
20260831154511 89 355 0.0 0.0 0.00 0.00 0.00 70 1018.6
20260831154012 89 38 0.0 0.0 0.00 0.00 0.00 70 1018.6
20260831153508 89 71 0.0 0.0 0.00 0.00 0.00 70 1018.6
20260831153008 88 38 0.0 0.0 0.00 0.00 0.00 70 1018.5
20260831152510 88 63 0.0 0.0 0.00 0.00 0.00 71 1018.5
20260831152008 88 168 0.0 0.0 0.00 0.00 0.00 72 1018.6
20260831151607 88 94 0.0 0.0 0.00 0.00 0.00 71 1018.6
20260831151005 88 106 0.0 0.0 0.00 0.00 0.00 71 1018.5
20260831150506 87 37 0.0 0.0 0.00 0.00 0.00 74 1018.5
20260831150004 87 92 0.0 0.0 0.00 0.00 0.00 75 1018.4
20260831145502 87 336 0.0 0.0 0.00 0.00 0.00 76 1018.4
20260831145003 87 348 0.0 0.0 0.00 0.00 0.00 76 1018.4
20260831144505 87 32 0.0 0.0 0.00 0.00 0.00 77 1018.5
20260831144100 87 36 0.0 0.0 0.00 0.00 0.00 78 1018.4
20260831143600 87 38 0.0 0.0 0.00 0.00 0.00 79 1018.2
20260831143108 86 37 0.0 0.0 0.00 0.00 0.00 79 1018.2
20260831142559 86 35 0.0 0.0 0.00 0.00 0.00 80 1018.2
20260831142057 85 175 0.0 0.0 0.00 0.00 0.00 81 1018.2
20260831141554 85 175 0.0 0.0 0.00 0.00 0.00 81 1018.2
20260831141054 85 176 0.0 0.0 0.00 0.00 0.00 83 1018.2
20260831140553 84 171 0.0 0.0 0.00 0.00 0.00 83 1018.2
20260831140052 84 169 0.0 0.0 0.00 0.00 0.00 84 1018.1
20260831135551 84 168 0.0 0.0 0.00 0.00 0.00 84 1018.0
20260831135050 83 168 0.0 0.0 0.00 0.00 0.00 85 1017.9
20260831134550 83 168 0.0 0.0 0.00 0.00 0.00 85 1018.1
20260831134048 83 168 0.0 0.0 0.00 0.00 0.00 86 1017.9
20260831133548 82 168 0.0 0.0 0.00 0.00 0.00 87 1018.1
20260831133052 82 168 0.0 0.0 0.00 0.00 0.00 88 1017.9
20260831132548 81 168 0.0 0.0 0.00 0.00 0.00 89 1017.8
20260831132050 81 168 0.0 0.0 0.00 0.00 0.00 90 1017.8
20260831131546 80 169 0.0 0.0 0.00 0.00 0.00 91 1017.8
20260831131045 80 169 0.0 0.0 0.00 0.00 0.00 91 1017.6
20260831130545 79 169 0.0 0.0 0.00 0.00 0.00 92 1017.5
20260831130049 79 169 0.0 0.0 0.00 0.00 0.00 92 1017.6
20260831125545 79 169 0.0 0.0 0.00 0.00 0.00 92 1017.5
20260831125047 78 169 0.0 0.0 0.00 0.00 0.00 92 1017.5
20260831124550 78 169 0.0 0.0 0.00 0.00 0.00 92 1017.5
20260831124044 78 169 0.0 0.0 0.00 0.00 0.00 92 1017.5
20260831123544 78 169 0.0 0.0 0.00 0.00 0.00 92 1017.5
20260831123044 78 169 0.0 0.0 0.00 0.00 0.00 92 1017.4
20260831122543 77 169 0.0 0.0 0.00 0.00 0.00 92 1017.3
20260831122044 77 169 0.0 0.0 0.00 0.00 0.00 91 1017.3
20260831121543 77 169 0.0 0.0 0.00 0.00 0.00 91 1017.2
20260831121043 77 169 0.0 0.0 0.00 0.00 0.00 91 1017.1
20260831120542 77 169 0.0 0.0 0.00 0.00 0.00 91 1017.0
20260831120052 77 169 0.0 0.0 0.00 0.00 0.00 91 1017.0
20260831115542 78 169 0.0 0.0 0.00 0.00 0.00 91 1016.9
20260831115042 78 169 0.0 0.0 0.00 0.00 0.00 91 1016.8
20260831114542 78 169 0.0 0.0 0.00 0.00 0.00 91 1016.8
20260831114045 78 169 0.0 0.0 0.00 0.00 0.00 91 1016.9
20260831113541 78 169 0.0 0.0 0.00 0.00 0.00 90 1016.8
20260831113050 78 169 0.0 0.0 0.00 0.00 0.00 90 1016.8